When you browse on this site, cookies collect data to enhance your experience and personalize the content and advertising you see.
Visit our Privacy Policy to learn more. By continuing to use the site, you agree to this use of cookies and data.
  • In Romania
  • List of Countries
  • For 7 days
  • Water Temperature
  • Weather Map
  • Weather Widgets
  • user-avatar
    Login

    Hourly Weather Barra

    Today, 13 November, Wednesday

    Time Temperature Precipitation Wind Pressure Humidity
    00:00 +23°C° 0 mm 2 mps 750 mmHg 77%
    01:00 +23°C° 0 mm 1 mps 749 mmHg 78%
    02:00 +22°C° 0 mm 1 mps 749 mmHg 80%
    03:00 +22°C° 0 mm 1 mps 749 mmHg 83%
    04:00 +21°C° 0 mm 1 mps 749 mmHg 85%
    05:00 +22°C° 0 mm 1 mps 749 mmHg 80%
    06:00 +23°C° 0 mm 1 mps 749 mmHg 76%
    07:00 +24°C° 0 mm 1 mps 750 mmHg 71%
    08:00 +27°C° 0 mm 1 mps 750 mmHg 62%
    09:00 +29°C° 0 mm 2 mps 749 mmHg 53%
    10:00 +31°C° 0 mm 2 mps 749 mmHg 44%
    11:00 +32°C° 0 mm 2 mps 749 mmHg 43%
    12:00 +33°C° 0 mm 3 mps 748 mmHg 43%
    13:00 +33°C° 0 mm 3 mps 748 mmHg 42%
    14:00 +33°C° 0 mm 4 mps 747 mmHg 45%
    15:00 +32°C° 0 mm 4 mps 747 mmHg 48%
    16:00 +30°C° 0 mm 4 mps 746 mmHg 51%
    17:00 +28°C° 0 mm 3 mps 746 mmHg 59%
    18:00 +26°C° 0 mm 3 mps 747 mmHg 67%
    19:00 +24°C° 0 mm 2 mps 747 mmHg 75%
    20:00 +24°C° 0 mm 2 mps 748 mmHg 78%
    21:00 +23°C° 0 mm 2 mps 748 mmHg 81%
    22:00 +21°C° 0 mm 3 mps 748 mmHg 84%
    23:00 +21°C° 0 mm 2 mps 748 mmHg 85%

    Tomorrow, 14 November, Thursday

    Time Temperature Precipitation Wind Pressure Humidity
    00:00 +20°C° 0 mm 2 mps 748 mmHg 87%
    01:00 +20°C° 0 mm 2 mps 747 mmHg 88%
    02:00 +21°C° 0 mm 1 mps 747 mmHg 89%
    03:00 +21°C° 0 mm 1 mps 747 mmHg 90%
    04:00 +20°C° 0 mm 1 mps 747 mmHg 90%
    05:00 +21°C° 0 mm 1 mps 748 mmHg 85%
    06:00 +23°C° 0 mm 2 mps 748 mmHg 80%
    07:00 +24°C° 0 mm 2 mps 748 mmHg 75%
    08:00 +27°C° 0 mm 2 mps 749 mmHg 63%
    09:00 +30°C° 0 mm 2 mps 749 mmHg 52%
    10:00 +34°C° 0 mm 2 mps 749 mmHg 40%
    11:00 +34°C° 0 mm 2 mps 748 mmHg 40%
    12:00 +34°C° 0 mm 3 mps 748 mmHg 41%
    13:00 +34°C° 0 mm 3 mps 747 mmHg 41%
    14:00 +33°C° 0 mm 3 mps 747 mmHg 45%
    15:00 +32°C° 0 mm 4 mps 746 mmHg 49%
    16:00 +30°C° 0 mm 4 mps 746 mmHg 52%
    17:00 +28°C° 0 mm 3 mps 747 mmHg 61%
    18:00 +26°C° 0 mm 3 mps 747 mmHg 69%
    19:00 +24°C° 0 mm 3 mps 747 mmHg 77%
    20:00 +24°C° 0 mm 2 mps 748 mmHg 80%
    21:00 +23°C° 0 mm 2 mps 748 mmHg 82%
    22:00 +23°C° 0 mm 2 mps 748 mmHg 85%
    23:00 +21°C° 0 mm 2 mps 748 mmHg 86%

    Day after tomorrow, 15 November, Friday

    Time Temperature Precipitation Wind Pressure Humidity
    00:00 +22°C° 0 mm 1 mps 748 mmHg 87%
    01:00 +22°C° 0 mm 1 mps 748 mmHg 88%
    02:00 +21°C° 0 mm 1 mps 748 mmHg 89%
    03:00 +21°C° 0 mm 1 mps 748 mmHg 90%
    04:00 +21°C° 0 mm 1 mps 748 mmHg 90%
    05:00 +22°C° 0 mm 1 mps 748 mmHg 84%
    06:00 +24°C° 0 mm 1 mps 748 mmHg 78%
    07:00 +25°C° 0 mm 1 mps 749 mmHg 73%
    08:00 +27°C° 0 mm 1 mps 749 mmHg 64%
    09:00 +29°C° 0 mm 2 mps 749 mmHg 56%
    10:00 +30°C° 0 mm 2 mps 749 mmHg 48%
    11:00 +31°C° 0 mm 2 mps 748 mmHg 47%
    12:00 +31°C° 0 mm 3 mps 748 mmHg 46%
    13:00 +31°C° 0 mm 3 mps 747 mmHg 45%
    14:00 +31°C° 0 mm 3 mps 747 mmHg 47%
    15:00 +30°C° 0 mm 3 mps 747 mmHg 50%
    16:00 +30°C° 0 mm 3 mps 747 mmHg 52%
    17:00 +28°C° 0 mm 2 mps 747 mmHg 61%
    18:00 +26°C° 0 mm 2 mps 748 mmHg 69%
    19:00 +24°C° 0 mm 2 mps 749 mmHg 78%
    20:00 +24°C° 0 mm 2 mps 749 mmHg 82%
    21:00 +24°C° 0 mm 2 mps 749 mmHg 84%
    22:00 +24°C° 0 mm 2 mps 750 mmHg 85%
    23:00 +24°C° 0 mm 2 mps 750 mmHg 87%

    16 November, Saturday

    Time Temperature Precipitation Wind Pressure Humidity
    00:00 +23°C° 0 mm 2 mps 749 mmHg 89%
    01:00 +23°C° 0 mm 2 mps 749 mmHg 91%
    02:00 +23°C° 0 mm 2 mps 749 mmHg 90%
    03:00 +21°C° 0 mm 2 mps 748 mmHg 89%
    04:00 +22°C° 0 mm 1 mps 748 mmHg 88%
    05:00 +23°C° 0 mm 1 mps 749 mmHg 83%
    06:00 +24°C° 0 mm 1 mps 749 mmHg 78%
    07:00 +25°C° 0 mm 1 mps 750 mmHg 73%
    08:00 +27°C° 0 mm 1 mps 750 mmHg 64%
    09:00 +29°C° 0 mm 2 mps 750 mmHg 55%
    10:00 +31°C° 0 mm 2 mps 750 mmHg 46%
    11:00 +31°C° 0 mm 3 mps 749 mmHg 46%
    12:00 +33°C° 0 mm 3 mps 749 mmHg 45%
    13:00 +33°C° 0 mm 3 mps 748 mmHg 44%
    14:00 +31°C° 0 mm 3 mps 748 mmHg 47%
    15:00 +30°C° 0 mm 3 mps 748 mmHg 49%
    16:00 +30°C° 0 mm 3 mps 747 mmHg 52%
    17:00 +28°C° 0 mm 3 mps 748 mmHg 61%
    18:00 +26°C° 0 mm 2 mps 748 mmHg 69%
    19:00 +24°C° 0 mm 2 mps 749 mmHg 78%
    20:00 +24°C° 0 mm 2 mps 749 mmHg 81%
    21:00 +23°C° 0 mm 2 mps 750 mmHg 84%
    22:00 +23°C° 0 mm 2 mps 750 mmHg 87%
    23:00 +23°C° 0 mm 2 mps 750 mmHg 87%

    17 November, Sunday

    Time Temperature Precipitation Wind Pressure Humidity
    00:00 +23°C° 0 mm 2 mps 750 mmHg 87%
    01:00 +22°C° 0 mm 1 mps 749 mmHg 87%
    02:00 +22°C° 0 mm 1 mps 749 mmHg 88%
    03:00 +22°C° 0 mm 1 mps 749 mmHg 88%
    04:00 +22°C° 0 mm 1 mps 749 mmHg 89%
    05:00 +23°C° 0 mm 1 mps 749 mmHg 83%
    06:00 +24°C° 0 mm 1 mps 749 mmHg 78%
    07:00 +25°C° 0 mm 1 mps 750 mmHg 73%
    08:00 +27°C° 0 mm 1 mps 750 mmHg 65%
    09:00 +29°C° 0 mm 1 mps 750 mmHg 56%
    10:00 +31°C° 0 mm 2 mps 750 mmHg 48%
    11:00 +31°C° 0 mm 2 mps 749 mmHg 47%
    12:00 +32°C° 0 mm 2 mps 748 mmHg 45%
    13:00 +33°C° 0 mm 3 mps 748 mmHg 44%
    14:00 +33°C° 0 mm 3 mps 747 mmHg 46%
    15:00 +31°C° 0 mm 3 mps 747 mmHg 48%
    16:00 +30°C° 0 mm 3 mps 746 mmHg 50%
    17:00 +28°C° 0 mm 3 mps 747 mmHg 59%
    18:00 +26°C° 0 mm 2 mps 747 mmHg 68%
    19:00 +24°C° 0 mm 2 mps 748 mmHg 77%
    20:00 +24°C° 0 mm 2 mps 748 mmHg 80%
    21:00 +23°C° 0 mm 2 mps 748 mmHg 83%
    22:00 +21°C° 0 mm 2 mps 748 mmHg 86%
    23:00 +21°C° 0 mm 2 mps 748 mmHg 87%

    18 November, Monday

    Time Temperature Precipitation Wind Pressure Humidity
    00:00 +22°C° 0 mm 1 mps 748 mmHg 88%
    01:00 +22°C° 0 mm 1 mps 748 mmHg 89%
    02:00 +21°C° 0 mm 1 mps 747 mmHg 90%
    03:00 +21°C° 0 mm 1 mps 747 mmHg 91%
    04:00 +21°C° 0 mm 1 mps 747 mmHg 92%
    05:00 +22°C° 0 mm 1 mps 747 mmHg 87%
    06:00 +23°C° 0 mm 1 mps 748 mmHg 81%
    07:00 +25°C° 0 mm 1 mps 748 mmHg 76%
    08:00 +27°C° 0 mm 1 mps 748 mmHg 64%
    09:00 +30°C° 0 mm 2 mps 748 mmHg 53%
    10:00 +34°C° 0 mm 2 mps 748 mmHg 41%
    11:00 +34°C° 0 mm 2 mps 747 mmHg 40%
    12:00 +34°C° 0 mm 2 mps 747 mmHg 39%
    13:00 +35°C° 0 mm 3 mps 746 mmHg 39%
    14:00 +34°C° 0 mm 3 mps 746 mmHg 43%
    15:00 +33°C° 0 mm 3 mps 745 mmHg 47%
    16:00 +31°C° 0 mm 3 mps 745 mmHg 51%
    17:00 +29°C° 0 mm 3 mps 745 mmHg 61%
    18:00 +27°C° 0 mm 2 mps 745 mmHg 71%
    19:00 +24°C° 0 mm 2 mps 746 mmHg 81%
    20:00 +24°C° 0 mm 2 mps 746 mmHg 84%
    21:00 +23°C° 0 mm 2 mps 746 mmHg 87%
    22:00 +23°C° 0 mm 2 mps 747 mmHg 90%
    23:00 +23°C° 0 mm 2 mps 746 mmHg 91%
    Show more